{"data":{"norad_id":65893,"epoch":"2026-09-19T11:13:49.504512Z","epoch_age_seconds":195245,"freshness":"STALE","line1":"1 65893U 25224M   26262.46793408  .00026698  00000+0  79830-3 0  9995","line2":"2 65893  53.1593 190.4833 0000690  84.4633 275.6448 15.34407189 54557","mean_motion":15.34407189,"eccentricity":6.9e-5,"inclination_deg":53.1593,"raan_deg":190.4833,"arg_perigee_deg":84.4633,"mean_anomaly_deg":275.6448,"bstar":0.0007983,"rev_number":5455,"period_min":93.847318386098,"perigee_km":462.20985656527,"apogee_km":463.15388956976,"semimajor_km":6840.8188730675,"source":"CELESTRAK","updated_at":"2026-09-21T09:00:35.758501Z"}}